Time,TemperatureF,DewpointF,PressureIn,WindDirection,WindDirectionDegrees,WindSpeedMPH,WindSpeedGustMPH,Humidity,HourlyPrecipIn,Conditions,Clouds,dailyrainin,SoftwareType,DateUTC
2013-03-29 00:05:00,37.2,31.0,29.92,West,281,0.0,0.0,78,0.00,,,0.00,vanprod,2013-03-29 04:05:00,
2013-03-29 00:15:00,36.6,31.0,29.92,West,280,0.0,0.0,79,0.00,,,0.00,vanprod,2013-03-29 04:15:00,
2013-03-29 00:25:00,36.2,31.0,29.92,West,280,0.0,0.0,80,0.00,,,0.00,vanprod,2013-03-29 04:25:00,
2013-03-29 00:35:00,35.6,30.0,29.92,West,278,0.0,0.0,81,0.00,,,0.00,vanprod,2013-03-29 04:35:00,
2013-03-29 00:45:00,35.2,30.0,29.93,West,280,0.0,0.0,81,0.00,,,0.00,vanprod,2013-03-29 04:45:00,
2013-03-29 00:55:00,34.9,30.0,29.93,West,280,0.0,0.0,82,0.00,,,0.00,vanprod,2013-03-29 04:55:00,
2013-03-29 01:05:00,34.6,30.0,29.93,West,280,0.0,0.0,83,0.00,,,0.00,vanprod,2013-03-29 05:05:00,
2013-03-29 01:15:00,34.1,29.0,29.93,West,280,0.0,0.0,83,0.00,,,0.00,vanprod,2013-03-29 05:15:00,
2013-03-29 01:25:00,34.0,30.0,29.93,West,280,0.0,0.0,84,0.00,,,0.00,vanprod,2013-03-29 05:25:00,
2013-03-29 01:35:00,33.8,29.0,29.93,West,280,0.0,0.0,84,0.00,,,0.00,vanprod,2013-03-29 05:35:00,
2013-03-29 01:45:00,33.8,29.0,29.93,West,280,0.0,0.0,84,0.00,,,0.00,vanprod,2013-03-29 05:45:00,
2013-03-29 01:55:00,33.7,29.0,29.93,West,280,0.0,0.0,84,0.00,,,0.00,vanprod,2013-03-29 05:55:00,
2013-03-29 02:05:00,33.7,29.0,29.93,West,280,0.0,0.0,84,0.00,,,0.00,vanprod,2013-03-29 06:05:00,
2013-03-29 02:15:00,33.8,29.0,29.93,West,280,0.0,0.0,84,0.00,,,0.00,vanprod,2013-03-29 06:15:00,
2013-03-29 02:25:00,33.8,29.0,29.93,West,281,0.0,0.0,84,0.00,,,0.00,vanprod,2013-03-29 06:25:00,
2013-03-29 02:35:00,34.0,30.0,29.93,West,280,0.0,0.0,84,0.00,,,0.00,vanprod,2013-03-29 06:35:00,
2013-03-29 02:45:00,33.7,29.0,29.93,West,280,0.0,0.0,84,0.00,,,0.00,vanprod,2013-03-29 06:45:00,
2013-03-29 02:55:00,33.4,29.0,29.93,West,280,0.0,0.0,85,0.00,,,0.00,vanprod,2013-03-29 06:55:00,
2013-03-29 03:05:00,33.1,29.0,29.93,West,280,0.0,0.0,85,0.00,,,0.00,vanprod,2013-03-29 07:05:00,
2013-03-29 03:15:00,32.7,29.0,29.93,West,280,0.0,0.0,86,0.00,,,0.00,vanprod,2013-03-29 07:15:00,
2013-03-29 03:25:00,32.2,29.0,29.93,West,280,0.0,0.0,87,0.00,,,0.00,vanprod,2013-03-29 07:25:00,
2013-03-29 03:35:00,31.9,29.0,29.93,West,280,0.0,0.0,88,0.00,,,0.00,vanprod,2013-03-29 07:35:00,
2013-03-29 03:45:00,31.9,29.0,29.92,West,280,0.0,0.0,88,0.00,,,0.00,vanprod,2013-03-29 07:45:00,
2013-03-29 03:55:00,31.9,29.0,29.92,West,278,0.0,0.0,88,0.00,,,0.00,vanprod,2013-03-29 07:55:00,
2013-03-29 04:05:00,32.1,29.0,29.92,West,280,0.0,0.0,88,0.00,,,0.00,vanprod,2013-03-29 08:05:00,
2013-03-29 04:15:00,32.1,29.0,29.92,West,280,0.0,0.0,89,0.00,,,0.00,vanprod,2013-03-29 08:15:00,
2013-03-29 04:25:00,31.9,29.0,29.92,West,280,0.0,0.0,89,0.00,,,0.00,vanprod,2013-03-29 08:25:00,
2013-03-29 04:35:00,31.9,29.0,29.92,West,280,0.0,0.0,89,0.00,,,0.00,vanprod,2013-03-29 08:35:00,
2013-03-29 04:45:00,32.1,29.0,29.91,West,280,0.0,0.0,89,0.00,,,0.00,vanprod,2013-03-29 08:45:00,
2013-03-29 04:55:00,32.2,30.0,29.91,West,280,0.0,0.0,90,0.00,,,0.00,vanprod,2013-03-29 08:55:00,
2013-03-29 05:05:00,32.5,30.0,29.91,West,280,0.0,0.0,90,0.00,,,0.00,vanprod,2013-03-29 09:05:00,
2013-03-29 05:15:00,33.1,30.0,29.92,West,280,0.0,0.0,90,0.00,,,0.00,vanprod,2013-03-29 09:15:00,
2013-03-29 05:25:00,33.4,30.0,29.92,West,281,0.0,0.0,89,0.00,,,0.00,vanprod,2013-03-29 09:25:00,
2013-03-29 05:35:00,33.5,30.0,29.92,West,280,0.0,0.0,88,0.00,,,0.00,vanprod,2013-03-29 09:35:00,
2013-03-29 05:45:00,33.5,30.0,29.92,West,280,0.0,0.0,87,0.00,,,0.00,vanprod,2013-03-29 09:45:00,
2013-03-29 05:55:00,33.2,30.0,29.92,West,280,0.0,0.0,87,0.00,,,0.00,vanprod,2013-03-29 09:55:00,
2013-03-29 06:05:00,32.9,29.0,29.93,West,280,0.0,0.0,87,0.00,,,0.00,vanprod,2013-03-29 10:05:00,
2013-03-29 06:15:00,32.7,29.0,29.93,West,280,0.0,0.0,88,0.00,,,0.00,vanprod,2013-03-29 10:15:00,
2013-03-29 06:25:00,32.2,29.0,29.93,West,280,0.0,0.0,88,0.00,,,0.00,vanprod,2013-03-29 10:25:00,
2013-03-29 06:35:00,31.9,29.0,29.93,West,280,0.0,0.0,88,0.00,,,0.00,vanprod,2013-03-29 10:35:00,
2013-03-29 06:45:00,31.8,29.0,29.93,West,280,0.0,0.0,88,0.00,,,0.00,vanprod,2013-03-29 10:45:00,
2013-03-29 06:55:00,32.2,30.0,29.93,West,280,0.0,0.0,90,0.00,,,0.00,vanprod,2013-03-29 10:55:00,
2013-03-29 07:05:00,32.7,30.0,29.93,West,280,0.0,0.0,91,0.00,,,0.00,vanprod,2013-03-29 11:05:00,
2013-03-29 07:15:00,33.2,31.0,29.93,West,280,0.0,0.0,91,0.00,,,0.00,vanprod,2013-03-29 11:15:00,
2013-03-29 07:25:00,33.5,31.0,29.93,West,280,0.0,0.0,91,0.00,,,0.00,vanprod,2013-03-29 11:25:00,
2013-03-29 07:35:00,34.0,31.0,29.93,West,278,0.0,0.0,90,0.00,,,0.00,vanprod,2013-03-29 11:35:00,
2013-03-29 07:45:00,34.4,32.0,29.94,West,281,0.0,0.0,91,0.00,,,0.00,vanprod,2013-03-29 11:45:00,
2013-03-29 07:55:00,35.5,33.0,29.94,West,280,0.0,1.0,91,0.00,,,0.00,vanprod,2013-03-29 11:55:00,
2013-03-29 08:05:00,37.2,34.0,29.93,WNW,296,0.0,0.0,90,0.00,,,0.00,vanprod,2013-03-29 12:05:00,
2013-03-29 08:15:00,39.3,35.0,29.93,NW,316,1.0,3.0,84,0.00,,,0.00,vanprod,2013-03-29 12:15:00,
2013-03-29 08:25:00,41.2,35.0,29.93,WNW,285,1.0,0.0,79,0.00,,,0.00,vanprod,2013-03-29 12:25:00,
2013-03-29 08:35:00,42.5,36.0,29.94,WNW,288,0.0,0.0,76,0.00,,,0.00,vanprod,2013-03-29 12:35:00,
2013-03-29 08:45:00,43.3,35.0,29.94,WSW,248,1.0,2.0,73,0.00,,,0.00,vanprod,2013-03-29 12:45:00,
2013-03-29 08:55:00,43.9,36.0,29.94,WSW,240,1.0,2.0,72,0.00,,,0.00,vanprod,2013-03-29 12:55:00,
2013-03-29 09:05:00,44.3,36.0,29.95,WSW,243,0.0,0.0,71,0.00,,,0.00,vanprod,2013-03-29 13:05:00,
2013-03-29 09:15:00,44.5,35.0,29.95,NNW,332,1.0,0.0,70,0.00,,,0.00,vanprod,2013-03-29 13:15:00,
2013-03-29 09:25:00,44.6,35.0,29.95,NNW,330,1.0,0.0,69,0.00,,,0.00,vanprod,2013-03-29 13:25:00,
2013-03-29 09:35:00,45.1,36.0,29.95,WSW,254,1.0,3.0,69,0.00,,,0.00,vanprod,2013-03-29 13:35:00,
2013-03-29 09:45:00,45.4,36.0,29.95,ESE,117,1.0,0.0,70,0.00,,,0.00,vanprod,2013-03-29 13:45:00,
2013-03-29 09:55:00,46.0,36.0,29.95,NNE,17,1.0,1.0,68,0.00,,,0.00,vanprod,2013-03-29 13:55:00,
2013-03-29 10:05:00,46.8,36.0,29.95,WSW,247,1.0,1.0,66,0.00,,,0.00,vanprod,2013-03-29 14:05:00,
2013-03-29 10:15:00,47.4,36.0,29.95,WSW,248,3.0,3.0,65,0.00,,,0.00,vanprod,2013-03-29 14:15:00,
2013-03-29 10:25:00,47.7,36.0,29.95,NNW,332,2.0,4.0,63,0.00,,,0.00,vanprod,2013-03-29 14:25:00,
2013-03-29 10:35:00,47.9,36.0,29.95,WNW,294,1.0,0.0,64,0.00,,,0.00,vanprod,2013-03-29 14:35:00,
2013-03-29 10:45:00,48.0,36.0,29.96,West,281,2.0,3.0,63,0.00,,,0.00,vanprod,2013-03-29 14:45:00,
2013-03-29 10:55:00,48.5,36.0,29.96,SE,140,1.0,1.0,62,0.00,,,0.00,vanprod,2013-03-29 14:55:00,
2013-03-29 11:05:00,49.4,36.0,29.95,WNW,282,2.0,2.0,59,0.00,,,0.00,vanprod,2013-03-29 15:05:00,
2013-03-29 11:15:00,49.8,36.0,29.95,West,275,2.0,3.0,59,0.00,,,0.00,vanprod,2013-03-29 15:15:00,
2013-03-29 11:25:00,50.4,36.0,29.95,NW,306,2.0,0.0,58,0.00,,,0.00,vanprod,2013-03-29 15:25:00,
2013-03-29 11:35:00,51.0,36.0,29.95,NNW,339,2.0,2.0,57,0.00,,,0.00,vanprod,2013-03-29 15:35:00,
2013-03-29 11:45:00,51.4,35.0,29.95,WNW,287,4.0,5.0,54,0.00,,,0.00,vanprod,2013-03-29 15:45:00,
2013-03-29 11:55:00,51.6,35.0,29.95,NW,319,4.0,4.0,53,0.00,,,0.00,vanprod,2013-03-29 15:55:00,
2013-03-29 12:05:00,51.6,35.0,29.94,North,357,3.0,3.0,53,0.00,,,0.00,vanprod,2013-03-29 16:05:00,
2013-03-29 12:15:00,52.6,35.0,29.94,WSW,257,3.0,6.0,51,0.00,,,0.00,vanprod,2013-03-29 16:15:00,
2013-03-29 12:25:00,52.8,36.0,29.94,West,280,3.0,3.0,52,0.00,,,0.00,vanprod,2013-03-29 16:25:00,
2013-03-29 12:35:00,53.2,35.0,29.93,NW,325,3.0,3.0,50,0.00,,,0.00,vanprod,2013-03-29 16:35:00,
2013-03-29 12:45:00,53.6,34.0,29.93,West,272,3.0,0.0,47,0.00,,,0.00,vanprod,2013-03-29 16:45:00,
2013-03-29 12:55:00,54.2,34.0,29.93,West,272,4.0,4.0,46,0.00,,,0.00,vanprod,2013-03-29 16:55:00,
2013-03-29 13:05:00,54.2,34.0,29.92,WSW,241,2.0,2.0,47,0.00,,,0.00,vanprod,2013-03-29 17:05:00,
2013-03-29 13:15:00,54.5,34.0,29.92,WSW,239,2.0,0.0,46,0.00,,,0.00,vanprod,2013-03-29 17:15:00,
2013-03-29 13:25:00,53.6,36.0,29.92,NW,308,1.0,0.0,52,0.00,,,0.00,vanprod,2013-03-29 17:25:00,
2013-03-29 13:35:00,52.6,33.0,29.91,WNW,296,2.0,0.0,48,0.00,,,0.00,vanprod,2013-03-29 17:35:00,
2013-03-29 13:45:00,52.2,34.0,29.91,West,271,2.0,4.0,49,0.00,,,0.00,vanprod,2013-03-29 17:45:00,
2013-03-29 13:55:00,53.5,33.0,29.91,NW,312,1.0,2.0,46,0.00,,,0.00,vanprod,2013-03-29 17:55:00,
2013-03-29 14:05:00,54.4,31.0,29.90,WSW,247,2.0,2.0,41,0.00,,,0.00,vanprod,2013-03-29 18:05:00,
2013-03-29 14:15:00,54.4,32.0,29.90,NW,311,1.0,1.0,43,0.00,,,0.00,vanprod,2013-03-29 18:15:00,
2013-03-29 14:25:00,53.8,32.0,29.90,NW,326,3.0,0.0,43,0.00,,,0.00,vanprod,2013-03-29 18:25:00,
2013-03-29 14:35:00,54.1,32.0,29.90,WNW,288,2.0,4.0,43,0.00,,,0.00,vanprod,2013-03-29 18:35:00,
2013-03-29 14:45:00,54.7,32.0,29.89,NNW,339,2.0,0.0,42,0.00,,,0.00,vanprod,2013-03-29 18:45:00,
2013-03-29 14:55:00,54.8,32.0,29.89,NW,304,2.0,2.0,42,0.00,,,0.00,vanprod,2013-03-29 18:55:00,
2013-03-29 15:05:00,55.0,31.0,29.89,NW,319,4.0,7.0,40,0.00,,,0.00,vanprod,2013-03-29 19:05:00,
2013-03-29 15:15:00,53.8,31.0,29.89,West,271,3.0,6.0,42,0.00,,,0.00,vanprod,2013-03-29 19:15:00,
2013-03-29 15:25:00,53.2,31.0,29.89,NNW,328,4.0,4.0,43,0.00,,,0.00,vanprod,2013-03-29 19:25:00,
2013-03-29 15:35:00,53.5,31.0,29.89,WNW,295,2.0,4.0,43,0.00,,,0.00,vanprod,2013-03-29 19:35:00,
2013-03-29 15:45:00,53.5,30.0,29.89,West,275,3.0,3.0,41,0.00,,,0.00,vanprod,2013-03-29 19:45:00,
2013-03-29 15:55:00,53.3,29.0,29.89,NNW,347,3.0,5.0,39,0.00,,,0.00,vanprod,2013-03-29 19:55:00,
2013-03-29 16:05:00,53.5,31.0,29.89,WSW,247,1.0,0.0,42,0.00,,,0.00,vanprod,2013-03-29 20:05:00,
2013-03-29 16:15:00,53.6,31.0,29.89,WNW,302,2.0,2.0,42,0.00,,,0.00,vanprod,2013-03-29 20:15:00,
2013-03-29 16:25:00,53.5,30.0,29.89,West,261,2.0,2.0,41,0.00,,,0.00,vanprod,2013-03-29 20:25:00,
2013-03-29 16:35:00,53.3,29.0,29.89,NW,308,2.0,2.0,40,0.00,,,0.00,vanprod,2013-03-29 20:35:00,
2013-03-29 16:45:00,53.2,30.0,29.89,NW,325,2.0,0.0,41,0.00,,,0.00,vanprod,2013-03-29 20:45:00,
2013-03-29 16:55:00,52.6,29.0,29.89,WNW,284,2.0,3.0,41,0.00,,,0.00,vanprod,2013-03-29 20:55:00,
2013-03-29 17:05:00,52.3,30.0,29.89,NW,326,3.0,5.0,43,0.00,,,0.00,vanprod,2013-03-29 21:05:00,
2013-03-29 17:15:00,52.6,30.0,29.90,NNW,328,3.0,6.0,42,0.00,,,0.00,vanprod,2013-03-29 21:15:00,
2013-03-29 17:25:00,52.8,30.0,29.90,North,353,4.0,5.0,42,0.00,,,0.00,vanprod,2013-03-29 21:25:00,
2013-03-29 17:35:00,52.9,31.0,29.90,WNW,288,2.0,2.0,43,0.00,,,0.00,vanprod,2013-03-29 21:35:00,
2013-03-29 17:45:00,52.2,31.0,29.90,North,356,3.0,10.0,45,0.00,,,0.00,vanprod,2013-03-29 21:45:00,
2013-03-29 17:55:00,51.9,32.0,29.90,NW,311,3.0,5.0,46,0.00,,,0.00,vanprod,2013-03-29 21:55:00,
2013-03-29 18:05:00,51.6,31.0,29.91,NNW,333,4.0,8.0,46,0.00,,,0.00,vanprod,2013-03-29 22:05:00,
2013-03-29 18:15:00,51.0,32.0,29.91,North,4,3.0,3.0,49,0.00,,,0.00,vanprod,2013-03-29 22:15:00,
2013-03-29 18:25:00,50.5,31.0,29.91,NW,323,2.0,2.0,48,0.00,,,0.00,vanprod,2013-03-29 22:25:00,
2013-03-29 18:35:00,49.8,31.0,29.92,NNW,330,2.0,0.0,49,0.00,,,0.00,vanprod,2013-03-29 22:35:00,
2013-03-29 18:45:00,49.2,32.0,29.92,West,272,2.0,2.0,51,0.00,,,0.00,vanprod,2013-03-29 22:45:00,
2013-03-29 18:55:00,48.6,32.0,29.92,WNW,295,1.0,0.0,53,0.00,,,0.00,vanprod,2013-03-29 22:55:00,
2013-03-29 19:05:00,47.9,32.0,29.92,WNW,296,3.0,3.0,54,0.00,,,0.00,vanprod,2013-03-29 23:05:00,
2013-03-29 19:15:00,47.3,32.0,29.92,NW,312,2.0,0.0,56,0.00,,,0.00,vanprod,2013-03-29 23:15:00,
2013-03-29 19:25:00,46.8,33.0,29.92,NW,326,1.0,0.0,58,0.00,,,0.00,vanprod,2013-03-29 23:25:00,
2013-03-29 19:35:00,46.1,32.0,29.92,WNW,299,1.0,1.0,58,0.00,,,0.00,vanprod,2013-03-29 23:35:00,
2013-03-29 19:45:00,45.5,32.0,29.92,NW,319,1.0,1.0,60,0.00,,,0.00,vanprod,2013-03-29 23:45:00,
2013-03-29 19:55:00,44.9,32.0,29.93,NW,306,0.0,0.0,61,0.00,,,0.00,vanprod,2013-03-29 23:55:00,
2013-03-29 20:05:00,44.3,32.0,29.93,NW,306,0.0,0.0,62,0.00,,,0.00,vanprod,2013-03-30 00:05:00,
2013-03-29 20:15:00,43.8,32.0,29.93,NW,306,0.0,0.0,63,0.00,,,0.00,vanprod,2013-03-30 00:15:00,
2013-03-29 20:25:00,43.3,32.0,29.93,NW,306,0.0,0.0,64,0.00,,,0.00,vanprod,2013-03-30 00:25:00,
2013-03-29 20:35:00,42.8,32.0,29.94,NW,306,0.0,0.0,66,0.00,,,0.00,vanprod,2013-03-30 00:35:00,
2013-03-29 20:45:00,42.5,32.0,29.94,NW,306,0.0,0.0,67,0.00,,,0.00,vanprod,2013-03-30 00:45:00,
2013-03-29 20:55:00,42.1,32.0,29.94,NW,306,0.0,0.0,68,0.00,,,0.00,vanprod,2013-03-30 00:55:00,
2013-03-29 21:05:00,41.6,33.0,29.94,NW,306,0.0,0.0,70,0.00,,,0.00,vanprod,2013-03-30 01:05:00,
2013-03-29 21:15:00,41.1,32.0,29.94,NW,306,0.0,0.0,70,0.00,,,0.00,vanprod,2013-03-30 01:15:00,
2013-03-29 21:25:00,40.6,32.0,29.95,NW,306,0.0,0.0,72,0.00,,,0.00,vanprod,2013-03-30 01:25:00,
2013-03-29 21:35:00,40.3,32.0,29.95,NW,305,0.0,0.0,72,0.00,,,0.00,vanprod,2013-03-30 01:35:00,
2013-03-29 21:45:00,40.2,32.0,29.95,NW,306,0.0,0.0,73,0.00,,,0.00,vanprod,2013-03-30 01:45:00,
2013-03-29 21:55:00,39.9,32.0,29.95,NW,305,0.0,0.0,73,0.00,,,0.00,vanprod,2013-03-30 01:55:00,
2013-03-29 22:05:00,39.9,32.0,29.95,NW,306,0.0,0.0,73,0.00,,,0.00,vanprod,2013-03-30 02:05:00,
2013-03-29 22:15:00,39.9,33.0,29.95,NW,306,0.0,0.0,75,0.00,,,0.00,vanprod,2013-03-30 02:15:00,
2013-03-29 22:25:00,39.9,33.0,29.95,NW,306,0.0,0.0,76,0.00,,,0.00,vanprod,2013-03-30 02:25:00,
2013-03-29 22:35:00,39.9,33.0,29.95,NW,306,0.0,0.0,76,0.00,,,0.00,vanprod,2013-03-30 02:35:00,
2013-03-29 22:45:00,39.9,33.0,29.95,NW,306,0.0,0.0,76,0.00,,,0.00,vanprod,2013-03-30 02:45:00,
2013-03-29 22:55:00,39.8,33.0,29.95,NW,305,0.0,0.0,75,0.00,,,0.00,vanprod,2013-03-30 02:55:00,
2013-03-29 23:05:00,39.6,33.0,29.95,NW,312,0.0,0.0,76,0.00,,,0.00,vanprod,2013-03-30 03:05:00,
2013-03-29 23:15:00,39.6,33.0,29.95,North,0,0.0,0.0,76,0.00,,,0.00,vanprod,2013-03-30 03:15:00,
2013-03-29 23:25:00,39.8,32.0,29.95,NW,304,1.0,1.0,74,0.00,,,0.00,vanprod,2013-03-30 03:25:00,
2013-03-29 23:35:00,40.1,32.0,29.95,North,0,1.0,1.0,73,0.00,,,0.00,vanprod,2013-03-30 03:35:00,
2013-03-29 23:45:00,40.5,32.0,29.95,NNW,329,1.0,1.0,71,0.00,,,0.00,vanprod,2013-03-30 03:45:00,
2013-03-29 23:55:00,40.9,32.0,29.95,NNW,329,0.0,0.0,70,0.00,,,0.00,vanprod,2013-03-30 03:55:00,